Location: Habighorst
(52.7089°N, 10.2278°E)
Time: 23:31:05
(UTC+00:00)

CORIOLIS - Pass Details

Date: 13 January 2026
Orbit: 816 x 835 km, 98.7° (Epoch: 7 February)

Event Time Altitude Azimuth Distance (km) Brightness Sun altitude
Rises 06:16:02 0° 14° (NNE) 3,398 7.3 -10.0°
Reaches altitude 10° 06:18:24 10° 11° (NNE) 2,461 6.5 -9.6°
Maximum altitude 06:23:49 67° 291° (WNW) 909 4.2 -8.9°
Drops below altitude 10° 06:29:11 10° 210° (SSW) 2,442 6.6 -8.1°
Sets 06:31:32 0° 207° (SSW) 3,370 7.3 -7.8°
